EW7001 Weather Reports


Display with metric or nautical units.
time (UTC)temp
F
wind
direction
speed
MPH
gust
MPH
rain 1hr
in
rain 24hr
in
rain mn
in
humidity
%
barometer
mb
20260905060034 71 223 4.0 7.0 0.00 1.21 9.27 26 1001.3
20260905054554 71 199 4.0 7.0 0.00 1.21 9.27 26 1001.2
20260905053018 70 207 5.0 8.0 0.00 1.21 9.27 27 1001.1
20260905051517 76 216 5.0 10.0 0.00 1.21 9.27 22 1001.1
20260905050016 80 225 9.0 13.0 0.00 1.21 9.27 20 1000.9
20260905044515 80 250 7.0 15.0 0.00 1.21 9.27 19 1000.7
20260905043012 80 227 7.0 12.0 0.00 1.21 9.27 20 1000.8
20260905041512 78 243 8.0 14.0 0.00 1.21 9.27 22 1000.9
20260905040011 74 212 3.0 6.0 0.00 1.21 9.27 26 1001.3
20260905034512 73 206 4.0 6.0 0.00 1.21 9.27 26 1001.3
20260905033013 73 200 2.0 4.0 0.00 1.21 9.27 27 1001.2
20260905031507 73 241 2.0 5.0 0.00 1.21 9.27 26 1001.1
20260905030011 72 215 2.0 5.0 0.00 1.21 9.27 26 1000.9
20260905024506 73 229 4.0 6.0 0.00 1.21 9.27 25 1000.8
20260905023002 73 223 3.0 5.0 0.00 1.21 9.27 24 1000.7
20260905021601 73 246 3.0 5.0 0.00 1.21 9.27 24 1000.6
20260905020058 75 201 3.0 5.0 0.01 1.21 9.27 22 1000.3
20260905014552 78 196 3.0 6.0 0.14 1.21 9.27 20 1000.2
20260905013049 83 178 3.0 7.0 0.14 1.21 9.27 17 1000.0
20260905011520 87 215 6.0 15.0 0.30 1.21 9.27 16 999.9
20260905010018 88 213 11.0 19.0 0.63 1.20 9.24 15 999.9
20260905004512 89 213 11.0 18.0 0.61 1.19 9.14 14 999.9
20260905003011 90 219 12.0 23.0 0.66 1.19 9.14 14 999.8
20260905001511 91 204 12.0 22.0 0.57 1.18 8.98 14 999.6
20260905000010 91 214 9.0 19.0 0.36 1.14 8.61 14 999.6
20260904234507 92 200 15.0 28.0 0.47 1.13 8.51 13 999.8
20260904233006 92 239 14.0 22.0 0.88 1.13 8.48 13 999.8
20260904231509 92 223 11.0 18.0 1.15 1.12 8.40 14 999.7
20260904230104 92 234 17.0 28.0 1.82 1.11 8.25 14 999.8
20260904224556 92 202 14.0 30.0 2.21 1.12 8.03 14 999.8
20260904223050 92 188 15.0 25.0 2.17 1.08 7.60 14 999.9
20260904221548 92 201 16.0 27.0 2.16 1.04 7.24 14 999.9
20260904220043 92 206 13.0 26.0 1.80 9.65 6.43 14 999.9
20260904214537 92 198 14.0 28.0 1.31 9.19 5.83 14 999.9
20260904213036 93 223 20.0 26.0 1.35 8.78 5.43 14 999.9
20260904211534 92 189 13.0 29.0 0.99 8.41 5.05 14 1000.0
20260904210035 92 204 13.0 28.0 0.90 7.99 4.63 15 1000.1
20260904204531 92 236 19.0 32.0 0.92 7.98 4.51 14 1000.2
20260904203030 91 249 7.0 22.0 0.62 7.54 4.08 15 1000.1
20260904201523 91 201 10.0 23.0 0.82 7.52 4.05 15 1000.1
20260904200026 92 173 13.0 22.0 0.62 7.19 3.73 14 1000.5
20260904194519 92 231 14.0 28.0 0.85 7.12 3.60 14 1000.4
20260904193016 91 191 16.0 26.0 0.99 6.98 3.46 15 1000.6
20260904191513 90 215 17.0 29.0 1.31 6.76 3.24 15 1000.6
20260904190011 90 226 10.0 26.0 1.55 6.63 3.11 16 1000.8
20260904184506 90 227 15.0 29.0 1.71 6.42 2.75 15 1001.1
20260904183005 90 242 15.0 27.0 1.91 6.14 2.47 16 1001.1
20260904181501 90 222 18.0 28.0 1.69 5.59 1.92 16 1001.3
20260904174553 89 198 16.0 27.0 1.34 4.76 1.06 17 1001.6
20260904173103 88 182 16.0 24.0 1.09 4.28 0.57 17 1001.7
20260904171549 88 215 14.0 23.0 1.23 3.93 0.23 17 1001.8
20260904170044 87 171 13.0 21.0 1.18 3.77 0.07 17 1001.8
20260904164542 85 161 14.0 25.0 1.01 3.39 3.39 18 1002.0
20260904163041 85 174 14.0 22.0 1.24 3.14 3.14 18 1002.0
20260904161540 83 185 11.0 19.0 0.93 2.69 2.69 19 1002.3
20260904160046 81 160 11.0 19.0 0.97 2.56 2.56 19 1002.3
20260904154510 79 163 11.0 18.0 0.96 2.35 2.35 20 1002.4
20260904153012 78 180 13.0 20.0 0.60 1.90 1.90 20 1002.3
20260904151504 76 184 14.0 22.0 0.62 1.76 1.76 20 1002.3
20260904150004 75 178 13.0 20.0 0.51 1.59 1.59 20 1002.3
20260904144503 73 185 11.0 18.0 0.34 1.38 1.38 21 1002.3
20260904143004 70 175 12.0 18.0 0.27 1.30 1.30 22 1002.3
20260904141602 68 187 12.0 18.0 0.14 1.13 1.13 23 1002.4
20260904140201 67 180 9.0 13.0 0.09 1.08 1.08 23 1002.3
20260904134613 66 206 7.0 12.0 0.10 1.04 1.04 23 1002.2
20260904133057 65 219 6.0 10.0 0.10 1.03 1.03 24 1002.1
20260904131553 63 203 6.0 11.0 0.08 1.00 1.00 26 1002.0
20260904130051 63 189 7.0 12.0 0.07 0.99 0.99 25 1001.9
20260904124559 63 171 9.0 12.0 0.02 0.94 0.94 25 1001.6
20260904123054 63 185 8.0 13.0 0.01 0.93 0.93 25 1001.6
20260904121552 63 177 8.0 13.0 0.00 0.92 0.92 25 1001.5
20260904120045 62 191 8.0 12.0 0.01 0.92 0.92 26 1001.4
20260904114545 58 212 6.0 9.0 0.01 0.93 0.92 29 1001.5
20260904113040 64 178 6.0 10.0 0.03 0.93 0.92 23 1001.3
20260904111542 63 204 6.0 10.0 0.03 0.93 0.92 24 1001.1
20260904110038 64 196 7.0 11.0 0.02 0.92 0.91 24 1001.1
20260904104536 64 187 7.0 10.0 0.02 0.95 0.91 24 1001.2
20260904103034 64 174 6.0 10.0 0.00 0.93 0.89 23 1000.9
20260904101533 62 200 6.0 10.0 0.00 0.93 0.89 25 1000.7
20260904100032 59 155 4.0 9.0 0.00 0.93 0.89 28 1000.8
20260904094547 63 211 5.0 8.0 0.00 1.02 0.89 24 1000.7
20260904093100 63 207 6.0 9.0 0.00 1.02 0.89 25 1000.8
20260904091559 61 217 5.0 8.0 0.00 1.02 0.89 26 1000.8
20260904090058 62 217 5.0 7.0 0.00 1.02 0.89 25 1000.8
20260904084549 63 193 5.0 8.0 0.00 1.42 0.89 24 1000.8
20260904083113 64 181 5.0 10.0 0.00 1.42 0.89 24 1001.0
20260904081545 65 178 8.0 11.0 0.00 1.42 0.89 23 1001.0
20260904080045 65 176 7.0 11.0 0.00 1.42 0.89 22 1001.1
20260904074546 65 172 6.0 10.0 0.00 1.43 0.89 23 1001.1
20260904073043 66 189 7.0 12.0 0.00 1.43 0.89 22 1001.2
20260904071600 66 174 8.0 12.0 0.02 1.43 0.89 22 1001.2
20260904070109 66 172 7.0 10.0 0.02 1.43 0.89 21 1001.3
20260904064545 68 165 7.0 13.0 0.02 1.43 0.89 20 1001.2
20260904063054 66 182 7.0 11.0 0.02 1.43 0.89 22 1001.1
20260904061542 67 150 4.0 8.0 0.00 1.41 0.87 21 1000.7